• In Belarus
  • List of Countries
  • For 7 days
  • Water Temperature
  • Satellite Maps
  • Weather Map
  • Weather Widgets
  • user-avatar
    Login

    Hourly Weather Horw

    Today, 19 October, Thursday

    Time Temperature Precipitation Wind Pressure Humidity
    00:00 +11°C° 0 mm 1 mps 715 mmHg 69%
    01:00 +11°C° 0 mm 1 mps 715 mmHg 68%
    02:00 +11°C° 0 mm 1 mps 714 mmHg 67%
    03:00 +11°C° 0 mm 1 mps 714 mmHg 67%
    04:00 +11°C° 0 mm 1 mps 714 mmHg 66%
    05:00 +11°C° 0 mm 1 mps 714 mmHg 65%
    06:00 +11°C° 0 mm 1 mps 714 mmHg 64%
    07:00 +11°C° 0 mm 1 mps 714 mmHg 63%
    08:00 +13°C° 0 mm 1 mps 714 mmHg 58%
    09:00 +16°C° 0 mm 1 mps 715 mmHg 52%
    10:00 +19°C° 0 mm 1 mps 715 mmHg 47%
    11:00 +20°C° 0 mm 1 mps 715 mmHg 46%
    12:00 +21°C° 0 mm 1 mps 715 mmHg 44%
    13:00 +22°C° 0 mm 1 mps 715 mmHg 42%
    14:00 +22°C° 0 mm 1 mps 714 mmHg 47%
    15:00 +21°C° 0 mm 1 mps 714 mmHg 52%
    16:00 +21°C° 0 mm 1 mps 714 mmHg 57%
    17:00 +18°C° 0 mm 1 mps 714 mmHg 63%
    18:00 +15°C° 0 mm 1 mps 714 mmHg 68%
    19:00 +13°C° 0 mm 1 mps 714 mmHg 74%
    20:00 +13°C° 0 mm 1 mps 714 mmHg 73%
    21:00 +13°C° 0 mm 1 mps 714 mmHg 72%
    22:00 +13°C° 0 mm 1 mps 714 mmHg 71%
    23:00 +13°C° 0 mm 1 mps 714 mmHg 72%

    Tomorrow, 20 October, Friday

    Time Temperature Precipitation Wind Pressure Humidity
    00:00 +12°C° 0 mm 1 mps 715 mmHg 74%
    01:00 +12°C° 0 mm 1 mps 715 mmHg 75%
    02:00 +12°C° 0 mm 1 mps 715 mmHg 76%
    03:00 +12°C° 0 mm 1 mps 715 mmHg 76%
    04:00 +12°C° 0 mm 1 mps 715 mmHg 77%
    05:00 +12°C° 0 mm 1 mps 715 mmHg 76%
    06:00 +11°C° 0 mm 1 mps 715 mmHg 76%
    07:00 +11°C° 0 mm 1 mps 715 mmHg 75%
    08:00 +13°C° 0 mm 1 mps 716 mmHg 69%
    09:00 +16°C° 0 mm 1 mps 716 mmHg 62%
    10:00 +19°C° 0 mm 1 mps 716 mmHg 56%
    11:00 +20°C° 0 mm 1 mps 716 mmHg 54%
    12:00 +20°C° 0 mm 1 mps 717 mmHg 52%
    13:00 +20°C° 0 mm 2 mps 717 mmHg 50%
    14:00 +20°C° 0 mm 2 mps 716 mmHg 55%
    15:00 +20°C° 0 mm 1 mps 716 mmHg 60%
    16:00 +19°C° 0 mm 1 mps 716 mmHg 66%
    17:00 +16°C° 0 mm 1 mps 716 mmHg 72%
    18:00 +15°C° 0 mm 1 mps 716 mmHg 79%
    19:00 +13°C° 0 mm 1 mps 717 mmHg 86%
    20:00 +13°C° 0 mm 1 mps 717 mmHg 84%
    21:00 +13°C° 0 mm 1 mps 717 mmHg 83%
    22:00 +13°C° 0 mm 1 mps 717 mmHg 82%
    23:00 +13°C° 0 mm 1 mps 717 mmHg 81%

    Day after tomorrow, 21 October, Saturday

    Time Temperature Precipitation Wind Pressure Humidity
    00:00 +12°C° 0 mm 1 mps 717 mmHg 80%
    01:00 +12°C° 0 mm 1 mps 717 mmHg 79%
    02:00 +12°C° 0 mm 1 mps 717 mmHg 78%
    03:00 +13°C° 0 mm 1 mps 717 mmHg 77%
    04:00 +13°C° 0 mm 1 mps 717 mmHg 76%
    05:00 +13°C° 0 mm 1 mps 717 mmHg 75%
    06:00 +13°C° 0 mm 1 mps 717 mmHg 74%
    07:00 +13°C° 0 mm 1 mps 717 mmHg 73%
    08:00 +15°C° 0 mm 1 mps 717 mmHg 68%
    09:00 +18°C° 0 mm 1 mps 717 mmHg 62%
    10:00 +20°C° 0 mm 1 mps 717 mmHg 56%
    11:00 +21°C° 0 mm 1 mps 717 mmHg 53%
    12:00 +21°C° 0 mm 2 mps 717 mmHg 49%
    13:00 +23°C° 0 mm 2 mps 717 mmHg 46%
    14:00 +21°C° 0 mm 2 mps 717 mmHg 52%
    15:00 +20°C° 0 mm 2 mps 717 mmHg 58%
    16:00 +19°C° 0 mm 2 mps 717 mmHg 65%
    17:00 +17°C° 0.2 mm 2 mps 717 mmHg 74%
    18:00 +15°C° 0.2 mm 2 mps 717 mmHg 84%
    19:00 +14°C° 0.2 mm 2 mps 717 mmHg 93%
    20:00 +13°C° 1.5 mm 2 mps 717 mmHg 94%
    21:00 +13°C° 1.5 mm 2 mps 718 mmHg 94%
    22:00 +12°C° 1.5 mm 2 mps 718 mmHg 95%
    23:00 +12°C° 0.7 mm 2 mps 718 mmHg 95%

    22 October, Sunday

    Time Temperature Precipitation Wind Pressure Humidity
    00:00 +11°C° 0.7 mm 1 mps 718 mmHg 94%
    01:00 +11°C° 0.7 mm 1 mps 717 mmHg 94%
    02:00 +11°C° 0.6 mm 1 mps 717 mmHg 94%
    03:00 +10°C° 0.6 mm 2 mps 717 mmHg 94%
    04:00 +9°C° 0.6 mm 2 mps 717 mmHg 94%
    05:00 +9°C° 0.7 mm 2 mps 716 mmHg 94%
    06:00 +9°C° 0.7 mm 2 mps 716 mmHg 94%
    07:00 +8°C° 0.7 mm 2 mps 716 mmHg 94%
    08:00 +8°C° 0.5 mm 3 mps 716 mmHg 91%
    09:00 +9°C° 0.5 mm 3 mps 717 mmHg 88%
    10:00 +9°C° 0.5 mm 3 mps 717 mmHg 85%
    11:00 +9°C° 0.3 mm 3 mps 717 mmHg 82%
    12:00 +10°C° 0.3 mm 3 mps 717 mmHg 79%
    13:00 +10°C° 0.3 mm 3 mps 716 mmHg 76%
    14:00 +10°C° 0.4 mm 3 mps 716 mmHg 78%
    15:00 +9°C° 0.4 mm 3 mps 716 mmHg 80%
    16:00 +9°C° 0.4 mm 3 mps 716 mmHg 82%
    17:00 +8°C° 0.3 mm 3 mps 717 mmHg 85%
    18:00 +7°C° 0.3 mm 3 mps 717 mmHg 87%
    19:00 +7°C° 0.3 mm 3 mps 718 mmHg 90%
    20:00 +7°C° 0.5 mm 3 mps 718 mmHg 90%
    21:00 +5°C° 0.5 mm 3 mps 718 mmHg 91%
    22:00 +5°C° 0.5 mm 3 mps 719 mmHg 92%
    23:00 +5°C° 0.6 mm 3 mps 719 mmHg 92%

    23 October, Monday

    Time Temperature Precipitation Wind Pressure Humidity
    00:00 +5°C° 0.6 mm 3 mps 719 mmHg 92%
    01:00 +5°C° 0.6 mm 3 mps 719 mmHg 92%
    02:00 +5°C° 0.4 mm 3 mps 719 mmHg 92%
    03:00 +5°C° 0.4 mm 3 mps 719 mmHg 92%
    04:00 +5°C° 0.4 mm 3 mps 719 mmHg 92%
    05:00 +6°C° 0.4 mm 2 mps 719 mmHg 92%
    06:00 +6°C° 0.4 mm 2 mps 720 mmHg 92%
    07:00 +6°C° 0.4 mm 2 mps 720 mmHg 91%
    08:00 +6°C° 0.2 mm 2 mps 720 mmHg 89%
    09:00 +7°C° 0.2 mm 2 mps 720 mmHg 86%
    10:00 +8°C° 0.2 mm 3 mps 721 mmHg 84%
    11:00 +9°C° 0 mm 3 mps 721 mmHg 81%
    12:00 +10°C° 0 mm 2 mps 721 mmHg 77%
    13:00 +12°C° 0 mm 2 mps 720 mmHg 73%
    14:00 +12°C° 0 mm 2 mps 720 mmHg 74%
    15:00 +12°C° 0 mm 2 mps 720 mmHg 74%
    16:00 +12°C° 0 mm 1 mps 720 mmHg 74%
    17:00 +10°C° 0 mm 1 mps 720 mmHg 78%
    18:00 +9°C° 0 mm 1 mps 721 mmHg 81%
    19:00 +7°C° 0 mm 2 mps 721 mmHg 85%
    20:00 +7°C° 0 mm 1 mps 721 mmHg 85%
    21:00 +7°C° 0 mm 1 mps 721 mmHg 85%
    22:00 +7°C° 0 mm 1 mps 721 mmHg 85%
    23:00 +7°C° 0 mm 1 mps 721 mmHg 85%

    24 October, Tuesday

    Time Temperature Precipitation Wind Pressure Humidity
    00:00 +7°C° 0 mm 1 mps 721 mmHg 85%
    01:00 +7°C° 0 mm 1 mps 721 mmHg 84%
    02:00 +7°C° 0 mm 1 mps 721 mmHg 84%
    03:00 +7°C° 0 mm 1 mps 721 mmHg 84%
    04:00 +7°C° 0 mm 1 mps 721 mmHg 83%
    05:00 +7°C° 0 mm 1 mps 721 mmHg 83%
    06:00 +7°C° 0 mm 1 mps 721 mmHg 82%
    07:00 +7°C° 0 mm 1 mps 721 mmHg 82%
    08:00 +10°C° 0 mm 1 mps 721 mmHg 79%
    09:00 +12°C° 0 mm 1 mps 721 mmHg 76%
    10:00 +14°C° 0 mm 1 mps 721 mmHg 73%
    11:00 +15°C° 0 mm 1 mps 721 mmHg 71%
    12:00 +16°C° 0 mm 1 mps 721 mmHg 68%
    13:00 +18°C° 0 mm 1 mps 720 mmHg 66%
    14:00 +18°C° 0 mm 1 mps 720 mmHg 70%
    15:00 +16°C° 0 mm 1 mps 720 mmHg 73%
    16:00 +16°C° 0 mm 1 mps 720 mmHg 76%
    17:00 +14°C° 0 mm 1 mps 720 mmHg 79%
    18:00 +13°C° 0 mm 1 mps 720 mmHg 81%
    19:00 +11°C° 0 mm 1 mps 720 mmHg 83%
    20:00 +11°C° 0 mm 1 mps 720 mmHg 82%
    21:00 +11°C° 0 mm 1 mps 721 mmHg 81%
    22:00 +11°C° 0 mm 1 mps 721 mmHg 80%
    23:00 +11°C° 0 mm 1 mps 721 mmHg 80%
    Show more